Погода в Асколи-Пичено

Италия     42°51′01″N   13°35′09″E
темп.,
°C
ветер,
м/с
пор.,
м/с
влажн.,
%
обл.,
%
осадки,
мм/ч
давл.,
гПа
погр.,
м
12 апреля, пн
пн1223:00+9юз228295 0.1 102039
02:00+9зюз2381100 0.1 102081
05:00+7юз22756 0.0 101929
08:00+9зюз236797 0.0 101998
11:00+11юз246899 0.6 1018492
14:00+12юз346526 0.6 1017878
17:00+12юз2363100 0.1 10151034
20:00+8зюз228294 0.4 101560
13 апреля, вт
вт1323:00+7юз3490100 3.5 1016126
02:00+6юз3490100 5.6 1015182
05:00+4зюз33902 0.0 101448
08:00+5зюз238367 0.0 1015230
11:00+9ссв126776 0.3 1015997
14:00+6с2292100 2.6 1017724
17:00+3с3498100 5.7 1019400
20:00+1ссз249673 6.3 1021266
14 апреля, ср
ср1423:00+1ссз259278 0.1 1023478
02:00+1с129999 0.6 1024192
05:000зсз129541 0.3 1025127
08:00+2ссз11807 0.3 1025168
11:00+5с336566 0.0 10241179
14:00+7св225596 0.1 10221597
17:00+4всв2280100 0.2 1022680
20:00+3всв119189 0.6 1022168
15 апреля, чт
чт1523:00+1зюз119679 0.1 102361
02:00+1з119199 0.2 102326
05:000ю119345 0.4 102253
08:00+2ююв128222 0.4 1022209
11:00+6вюв225739 0.0 10211144
14:00+7в225997 0.1 10201267
17:00+5всв227385 0.7 1020720
20:00+2вюв1180100 0.9 102155
16 апреля, пт
пт1623:000юз228664 0.0 102218
02:000юз2186100 0.0 102112
05:00−1юз118797 0.0 102010
08:00+2вюв1174100 0.0 1020153
11:00+6в3354100 0.0 1019932
14:00+8в335498 0.0 10171316
17:00+7в336398 0.0 10161164
20:00+2в1190100 0.1 101812